This is the latest recevied weather packets stored in our database for station/object WO5CID. If no packets are shown the sender has not sent any weather packets the latest 10 day(s).
| Time | Temp. | Humidity | Pressure | Rain* | Wind** | Luminosity | Snow |
|---|---|---|---|---|---|---|---|
| 1777855825 | 18.33° C | 66% | 1017.1 hPa | 0 mm | - | 0 W/m² | - |
| 1777855522 | 18.33° C | 66% | 1017 hPa | 0 mm | - | 0 W/m² | - |
| 1777855219 | 18.33° C | 66% | 1017.1 hPa | 0 mm | - | 0 W/m² | - |
| 1777854915 | 18.33° C | 65% | 1017.1 hPa | 0 mm | - | 0 W/m² | - |
| 1777854612 | 18.33° C | 65% | 1016.9 hPa | 0 mm | - | 0 W/m² | - |
| 1777854309 | 18.89° C | 66% | 1017.2 hPa | 0 mm | - | 0 W/m² | - |
| 1777854006 | 18.89° C | 64% | 1017 hPa | 0 mm | - | 0 W/m² | - |
| 1777853704 | 19.44° C | 62% | 1017 hPa | 0 mm | - | 1 W/m² | - |
| 1777853400 | 19.44° C | 60% | 1016.9 hPa | 0 mm | - | 2 W/m² | - |
| 1777853097 | 19.44° C | 60% | 1017.1 hPa | 0 mm | - | 3 W/m² | - |
| 1777852794 | 20° C | 59% | 1017.1 hPa | 0 mm | - | 5 W/m² | - |
| 1777852492 | 20° C | 60% | 1017.2 hPa | 0 mm | - | 8 W/m² | - |
| 1777852189 | 20° C | 58% | 1016.9 hPa | 0 mm | - | 12 W/m² | - |
| 1777851887 | 20.56° C | 59% | 1016.8 hPa | 0 mm | - | 16 W/m² | - |
| 1777851585 | 20.56° C | 56% | 1017.1 hPa | 0 mm | - | 19 W/m² | - |
| 1777851281 | 21.11° C | 55% | 1017.1 hPa | 0 mm | - | 22 W/m² | - |
| 1777850977 | 21.11° C | 53% | 1016.8 hPa | 0 mm | - | 27 W/m² | - |
| 1777850674 | 21.11° C | 53% | 1017 hPa | 0 mm | - | 29 W/m² | - |
| 1777850372 | 21.67° C | 53% | 1016.8 hPa | 0 mm | - | 32 W/m² | - |
| 1777850069 | 21.67° C | 52% | 1016.8 hPa | 0 mm | - | 33 W/m² | - |
| 1777849766 | 21.67° C | 52% | 1016.8 hPa | 0 mm | - | 35 W/m² | - |
| 1777849462 | 22.22° C | 53% | 1016.8 hPa | 0 mm | - | 38 W/m² | - |
| 1777849160 | 22.22° C | 50% | 1016.6 hPa | 0 mm | - | 39 W/m² | - |
| 1777848857 | 22.78° C | 51% | 1016.8 hPa | 0 mm | - | 41 W/m² | - |
| 1777848552 | 22.78° C | 48% | 1016.6 hPa | 0 mm | - | 46 W/m² | - |
* Rain latest hour (hover to see other rain measurements)
** Current wind speed in m/s (hover to see current wind gust speed)